HISTORICAL SENSOR DATA

Sensor Data Report

DB LIVE
CURRENT TIME--:--:--
DEVICE NETWORK Gateway Status
13 ESP · realtime ~1s · history 60s
Weather WS-MOD-01
ONLINE
Actuator ACT-MOD-01
OFFLINE
Mainboard L3 MB-L3-01
ONLINE
Mainboard L5 MB-L5-01
ONLINE
Remote AC AC-REMOTE-01
ONLINE
PZEM L3-01 PWR-L3-01
OFFLINE
PZEM L3-02 PWR-L3-02
OFFLINE
PZEM L3-03 PWR-L3-03
OFFLINE
PZEM L3-04 PWR-L3-04
OFFLINE
PZEM L5-01 PWR-L5-01
ONLINE
PZEM L5-02 PWR-L5-02
ONLINE
PZEM L5-03 PWR-L5-03
OFFLINE
PZEM L5-04 PWR-L5-04
OFFLINE
REPORT FILTER

Periode & Sensor

DATABASE HISTORY
RESET
QUICK RANGE Hari ini 7 hari 30 hari
PERIODE08 Aug 2026sampai 06 Sep 2026
TOTAL DATA67,817sensor readings
MINIMUM-0.50sesuai filter
AVERAGE84.86sesuai filter
MAXIMUM32,564.20sesuai filter
REPORT RESULT

Data Sensor

08/08/2026 — 06/09/2026 EXPORT CSV
NOTANGGALWAKTUDEVICECHANNELSENSORVALUEUNIT
3501 06/09/2026 23:08:00 PWR-L5-02Power Meter L5 PZEM 02 PZEM-L5-02-ENERGY PZEM L5-02 Energy 0.04 kWh
3502 06/09/2026 23:08:00 MB-L3-01Mainboard Lantai 3 L3-LUX-01 Illuminance / LUX 1 0.20 lux
3503 06/09/2026 23:07:00 MB-L5-01Mainboard Lantai 5 L5-ST-01 Surface Temperature 1 24.90 °C
3504 06/09/2026 23:07:00 MB-L5-01Mainboard Lantai 5 L5-LUX-01 Illuminance / LUX 1 0.00 lux
3505 06/09/2026 23:07:00 WS-MOD-01Weather Station Module WS-DIR Arah Angin 65.50 °
3506 06/09/2026 23:07:00 MB-L3-01Mainboard Lantai 3 L3-RAD-02 Radiation 2 0.00 W/m²
3507 06/09/2026 23:07:00 MB-L3-01Mainboard Lantai 3 L3-AI-05 Analog Input 5 3.12 V
3508 06/09/2026 23:07:00 MB-L5-01Mainboard Lantai 5 L5-HFT-02 Heat Flow Temperature 2 24.00 °C
3509 06/09/2026 23:07:00 MB-L3-01Mainboard Lantai 3 L3-LUX-02 Illuminance / LUX 2 0.20 lux
3510 06/09/2026 23:07:00 PWR-L5-02Power Meter L5 PZEM 02 PZEM-L5-02-POWER PZEM L5-02 Active Power 0.00 W
3511 06/09/2026 23:07:00 MB-L5-01Mainboard Lantai 5 L5-AI-02 Analog Input 2 3.05 V
3512 06/09/2026 23:07:00 PWR-L5-01Power Meter L5 PZEM 01 PZEM-L5-01-VOLT PZEM L5-01 Voltage 227.30 V
3513 06/09/2026 23:07:00 AC-REMOTE-01Remote AC AC-MODE AC Operating Mode 1.00 code
3514 06/09/2026 23:07:00 MB-L3-01Mainboard Lantai 3 L3-SHT-01-T SHT20 1 Temperature 28.90 °C
3515 06/09/2026 23:07:00 MB-L3-01Mainboard Lantai 3 L3-SHT-02-T SHT20 2 Temperature 29.20 °C
3516 06/09/2026 23:07:00 PWR-L5-02Power Meter L5 PZEM 02 PZEM-L5-02-PF PZEM L5-02 Power Factor 0.00
3517 06/09/2026 23:07:00 MB-L5-01Mainboard Lantai 5 L5-BGT-01 Black Globe Temperature 1 27.00 °C
3518 06/09/2026 23:07:00 MB-L5-01Mainboard Lantai 5 L5-AI-05 Analog Input 5 3.05 V
3519 06/09/2026 23:07:00 MB-L3-01Mainboard Lantai 3 L3-AI-03 Analog Input 3 3.12 V
3520 06/09/2026 23:07:00 WS-MOD-01Weather Station Module WS-WIND Kecepatan Angin 4.63 m/s
3521 06/09/2026 23:07:00 PWR-L5-01Power Meter L5 PZEM 01 PZEM-L5-01-CURR PZEM L5-01 Current 0.12 A
3522 06/09/2026 23:07:00 MB-L5-01Mainboard Lantai 5 L5-ST-02 Surface Temperature 2 24.30 °C
3523 06/09/2026 23:07:00 MB-L5-01Mainboard Lantai 5 L5-SHT-01-RH SHT20 1 Humidity 45.20 %RH
3524 06/09/2026 23:07:00 PWR-L5-02Power Meter L5 PZEM 02 PZEM-L5-02-CURR PZEM L5-02 Current 0.00 A
3525 06/09/2026 23:07:00 MB-L3-01Mainboard Lantai 3 L3-LUX-06 Illuminance / LUX 6 0.30 lux
3526 06/09/2026 23:07:00 WS-MOD-01Weather Station Module WS-PRES Tekanan Udara 912.00 hPa
3527 06/09/2026 23:07:00 MB-L5-01Mainboard Lantai 5 L5-SHT-02-T SHT20 2 Temperature 29.20 °C
3528 06/09/2026 23:07:00 MB-L3-01Mainboard Lantai 3 L3-LUX-04 Illuminance / LUX 4 0.10 lux
3529 06/09/2026 23:07:00 AC-REMOTE-01Remote AC AC-SETPOINT AC Set Temperature 23.00 °C
3530 06/09/2026 23:07:00 PWR-L5-01Power Meter L5 PZEM 01 PZEM-L5-01-POWER PZEM L5-01 Active Power 10.70 W
3531 06/09/2026 23:07:00 MB-L3-01Mainboard Lantai 3 L3-AI-01 Analog Input 1 3.12 V
3532 06/09/2026 23:07:00 MB-L5-01Mainboard Lantai 5 L5-SHT-03-RH SHT20 3 Humidity 45.00 %RH
3533 06/09/2026 23:07:00 MB-L3-01Mainboard Lantai 3 L3-SHT-02-RH SHT20 2 Humidity 44.50 %RH
3534 06/09/2026 23:07:00 MB-L5-01Mainboard Lantai 5 L5-SHT-01-T SHT20 1 Temperature 29.10 °C
3535 06/09/2026 23:07:00 MB-L3-01Mainboard Lantai 3 L3-SHT-03-RH SHT20 3 Humidity 44.90 %RH
3536 06/09/2026 23:07:00 MB-L5-01Mainboard Lantai 5 L5-LUX-03 Illuminance / LUX 3 0.20 lux
3537 06/09/2026 23:07:00 MB-L5-01Mainboard Lantai 5 L5-SHT-03-T SHT20 3 Temperature 29.20 °C
3538 06/09/2026 23:07:00 MB-L3-01Mainboard Lantai 3 L3-AI-06 Analog Input 6 3.12 V
3539 06/09/2026 23:07:00 MB-L5-01Mainboard Lantai 5 L5-AI-03 Analog Input 3 3.05 V
3540 06/09/2026 23:07:00 MB-L5-01Mainboard Lantai 5 L5-SHT-02-RH SHT20 2 Humidity 44.70 %RH
3541 06/09/2026 23:07:00 PWR-L5-02Power Meter L5 PZEM 02 PZEM-L5-02-FREQ PZEM L5-02 Frequency 50.00 Hz
3542 06/09/2026 23:07:00 MB-L3-01Mainboard Lantai 3 L3-RAD-01 Radiation 1 1.00 W/m²
3543 06/09/2026 23:07:00 PWR-L5-01Power Meter L5 PZEM 01 PZEM-L5-01-ENERGY PZEM L5-01 Energy 0.05 kWh
3544 06/09/2026 23:07:00 MB-L5-01Mainboard Lantai 5 L5-BGT-02 Black Globe Temperature 2 26.90 °C
3545 06/09/2026 23:07:00 PWR-L5-02Power Meter L5 PZEM 02 PZEM-L5-02-VOLT PZEM L5-02 Voltage 227.20 V
3546 06/09/2026 23:07:00 MB-L5-01Mainboard Lantai 5 L5-AI-06 Analog Input 6 3.05 V
3547 06/09/2026 23:07:00 AC-REMOTE-01Remote AC AC-POWER AC Power State 1.00 state
3548 06/09/2026 23:07:00 MB-L3-01Mainboard Lantai 3 L3-AI-04 Analog Input 4 3.12 V
3549 06/09/2026 23:07:00 MB-L3-01Mainboard Lantai 3 L3-LUX-05 Illuminance / LUX 5 0.30 lux
3550 06/09/2026 23:07:00 MB-L5-01Mainboard Lantai 5 L5-RAD-02 Radiation 2 1.00 W/m²
3551 06/09/2026 23:07:00 MB-L5-01Mainboard Lantai 5 L5-HFT-01 Heat Flow Temperature 1 24.70 °C
3552 06/09/2026 23:07:00 MB-L5-01Mainboard Lantai 5 L5-LUX-04 Illuminance / LUX 4 0.10 lux
3553 06/09/2026 23:07:00 WS-MOD-01Weather Station Module WS-RH Kelembapan Udara 75.30 %RH
3554 06/09/2026 23:07:00 MB-L5-01Mainboard Lantai 5 L5-RAD-01 Radiation 1 1.00 W/m²
3555 06/09/2026 23:07:00 MB-L5-01Mainboard Lantai 5 L5-AI-01 Analog Input 1 3.05 V
3556 06/09/2026 23:07:00 MB-L5-01Mainboard Lantai 5 L5-LUX-02 Illuminance / LUX 2 0.10 lux
3557 06/09/2026 23:07:00 PWR-L5-01Power Meter L5 PZEM 01 PZEM-L5-01-FREQ PZEM L5-01 Frequency 50.00 Hz
3558 06/09/2026 23:07:00 PWR-L5-02Power Meter L5 PZEM 02 PZEM-L5-02-ENERGY PZEM L5-02 Energy 0.04 kWh
3559 06/09/2026 23:07:00 MB-L3-01Mainboard Lantai 3 L3-LUX-01 Illuminance / LUX 1 0.20 lux
3560 06/09/2026 23:07:00 MB-L5-01Mainboard Lantai 5 L5-LUX-06 Illuminance / LUX 6 0.10 lux
3561 06/09/2026 23:07:00 MB-L3-01Mainboard Lantai 3 L3-AI-02 Analog Input 2 3.12 V
3562 06/09/2026 23:07:00 MB-L5-01Mainboard Lantai 5 L5-AI-04 Analog Input 4 3.05 V
3563 06/09/2026 23:07:00 MB-L3-01Mainboard Lantai 3 L3-SHT-01-RH SHT20 1 Humidity 45.10 %RH
3564 06/09/2026 23:07:00 MB-L3-01Mainboard Lantai 3 L3-LUX-03 Illuminance / LUX 3 0.20 lux
3565 06/09/2026 23:07:00 PWR-L5-01Power Meter L5 PZEM 01 PZEM-L5-01-PF PZEM L5-01 Power Factor 0.38
3566 06/09/2026 23:07:00 WS-MOD-01Weather Station Module WS-TEMP Suhu Udara 20.30 °C
3567 06/09/2026 23:07:00 AC-REMOTE-01Remote AC AC-FAN AC Fan Speed 0.00 code
3568 06/09/2026 23:07:00 MB-L5-01Mainboard Lantai 5 L5-BGT-03 Black Globe Temperature 3 26.70 °C
3569 06/09/2026 23:07:00 MB-L3-01Mainboard Lantai 3 L3-SHT-03-T SHT20 3 Temperature 29.20 °C
3570 06/09/2026 23:06:00 MB-L5-01Mainboard Lantai 5 L5-AI-05 Analog Input 5 3.05 V
3571 06/09/2026 23:06:00 MB-L3-01Mainboard Lantai 3 L3-AI-03 Analog Input 3 3.12 V
3572 06/09/2026 23:06:00 WS-MOD-01Weather Station Module WS-WIND Kecepatan Angin 5.85 m/s
3573 06/09/2026 23:06:00 PWR-L5-01Power Meter L5 PZEM 01 PZEM-L5-01-CURR PZEM L5-01 Current 0.12 A
3574 06/09/2026 23:06:00 MB-L5-01Mainboard Lantai 5 L5-ST-02 Surface Temperature 2 24.20 °C
3575 06/09/2026 23:06:00 MB-L5-01Mainboard Lantai 5 L5-SHT-01-RH SHT20 1 Humidity 45.20 %RH
3576 06/09/2026 23:06:00 PWR-L5-02Power Meter L5 PZEM 02 PZEM-L5-02-CURR PZEM L5-02 Current 0.00 A
3577 06/09/2026 23:06:00 MB-L3-01Mainboard Lantai 3 L3-LUX-06 Illuminance / LUX 6 0.30 lux
3578 06/09/2026 23:06:00 WS-MOD-01Weather Station Module WS-PRES Tekanan Udara 912.00 hPa
3579 06/09/2026 23:06:00 MB-L5-01Mainboard Lantai 5 L5-SHT-02-T SHT20 2 Temperature 29.20 °C
3580 06/09/2026 23:06:00 MB-L3-01Mainboard Lantai 3 L3-LUX-04 Illuminance / LUX 4 0.10 lux
3581 06/09/2026 23:06:00 AC-REMOTE-01Remote AC AC-SETPOINT AC Set Temperature 23.00 °C
3582 06/09/2026 23:06:00 PWR-L5-01Power Meter L5 PZEM 01 PZEM-L5-01-POWER PZEM L5-01 Active Power 10.50 W
3583 06/09/2026 23:06:00 MB-L3-01Mainboard Lantai 3 L3-AI-01 Analog Input 1 3.12 V
3584 06/09/2026 23:06:00 MB-L5-01Mainboard Lantai 5 L5-SHT-03-RH SHT20 3 Humidity 45.00 %RH
3585 06/09/2026 23:06:00 MB-L3-01Mainboard Lantai 3 L3-SHT-02-RH SHT20 2 Humidity 44.50 %RH
3586 06/09/2026 23:06:00 MB-L5-01Mainboard Lantai 5 L5-SHT-01-T SHT20 1 Temperature 29.00 °C
3587 06/09/2026 23:06:00 MB-L3-01Mainboard Lantai 3 L3-SHT-03-RH SHT20 3 Humidity 44.80 %RH
3588 06/09/2026 23:06:00 MB-L5-01Mainboard Lantai 5 L5-LUX-03 Illuminance / LUX 3 0.10 lux
3589 06/09/2026 23:06:00 MB-L5-01Mainboard Lantai 5 L5-SHT-03-T SHT20 3 Temperature 29.20 °C
3590 06/09/2026 23:06:00 MB-L3-01Mainboard Lantai 3 L3-AI-06 Analog Input 6 3.12 V
3591 06/09/2026 23:06:00 MB-L5-01Mainboard Lantai 5 L5-AI-03 Analog Input 3 3.05 V
3592 06/09/2026 23:06:00 MB-L5-01Mainboard Lantai 5 L5-SHT-02-RH SHT20 2 Humidity 44.70 %RH
3593 06/09/2026 23:06:00 PWR-L5-02Power Meter L5 PZEM 02 PZEM-L5-02-FREQ PZEM L5-02 Frequency 50.00 Hz
3594 06/09/2026 23:06:00 MB-L3-01Mainboard Lantai 3 L3-RAD-01 Radiation 1 1.00 W/m²
3595 06/09/2026 23:06:00 PWR-L5-01Power Meter L5 PZEM 01 PZEM-L5-01-ENERGY PZEM L5-01 Energy 0.05 kWh
3596 06/09/2026 23:06:00 MB-L5-01Mainboard Lantai 5 L5-BGT-02 Black Globe Temperature 2 26.90 °C
3597 06/09/2026 23:06:00 PWR-L5-02Power Meter L5 PZEM 02 PZEM-L5-02-VOLT PZEM L5-02 Voltage 227.10 V
3598 06/09/2026 23:06:00 MB-L5-01Mainboard Lantai 5 L5-AI-06 Analog Input 6 3.05 V
3599 06/09/2026 23:06:00 AC-REMOTE-01Remote AC AC-POWER AC Power State 1.00 state
3600 06/09/2026 23:06:00 MB-L3-01Mainboard Lantai 3 L3-AI-04 Analog Input 4 3.12 V
Menampilkan maksimal 100 data per halaman